Time,TemperatureF,DewpointF,PressureIn,WindDirection,WindDirectionDegrees,WindSpeedMPH,WindSpeedGustMPH,Humidity,HourlyPrecipIn,Conditions,Clouds,dailyrainin,SolarRadiationWatts/m^2,SoftwareType,DateUTC
2013-04-16 00:03:00,51.0,31.0,-100.00,South,176,8.0,21.0,47,0.00,,,-99.99,0.000000,,2013-04-16 04:03:00,
2013-04-16 00:13:00,51.0,31.0,-100.00,South,176,8.0,21.0,47,0.00,,,-99.99,0.000000,,2013-04-16 04:13:00,
2013-04-16 01:42:00,48.0,29.0,-100.00,South,178,8.0,19.0,48,-99.99,,,0.00,0.000000,,2013-04-16 05:42:00,
2013-04-16 01:52:00,48.0,29.0,-100.00,South,178,8.0,19.0,48,-99.99,,,0.00,0.000000,,2013-04-16 05:52:00,
2013-04-16 02:02:00,48.0,29.0,-100.00,South,178,8.0,19.0,48,-99.99,,,0.00,0.000000,,2013-04-16 06:02:00,
2013-04-16 02:12:00,48.0,29.0,-100.00,South,178,8.0,19.0,48,-99.99,,,0.00,0.000000,,2013-04-16 06:12:00,
2013-04-16 02:32:00,47.0,28.0,-100.00,South,186,9.0,19.0,48,0.00,,,0.00,0.000000,,2013-04-16 06:32:00,
2013-04-16 02:42:00,47.0,28.0,-100.00,South,186,9.0,19.0,48,0.00,,,0.00,0.000000,,2013-04-16 06:42:00,
2013-04-16 02:52:00,47.0,28.0,-100.00,South,186,9.0,19.0,48,0.00,,,0.00,0.000000,,2013-04-16 06:52:00,
2013-04-16 03:02:00,47.0,28.0,-100.00,South,186,9.0,19.0,48,0.00,,,0.00,0.000000,,2013-04-16 07:02:00,
2013-04-16 03:12:00,47.0,28.0,-100.00,South,186,9.0,19.0,48,0.00,,,0.00,0.000000,,2013-04-16 07:12:00,
2013-04-16 03:42:00,47.0,28.0,-100.00,SSW,193,8.0,20.0,48,0.00,,,0.00,0.000000,,2013-04-16 07:42:00,
2013-04-16 03:53:00,47.0,28.0,-100.00,SSW,193,8.0,20.0,48,0.00,,,0.00,0.000000,,2013-04-16 07:53:00,
2013-04-16 04:02:00,47.0,28.0,-100.00,SSW,193,8.0,20.0,48,0.00,,,0.00,0.000000,,2013-04-16 08:02:00,
2013-04-16 04:12:00,47.0,28.0,-100.00,SSW,193,8.0,20.0,48,0.00,,,0.00,0.000000,,2013-04-16 08:12:00,
2013-04-16 04:42:00,46.0,27.0,-100.00,South,186,9.0,19.0,48,0.00,,,0.00,0.000000,,2013-04-16 08:42:00,
2013-04-16 04:52:00,46.0,27.0,-100.00,South,186,9.0,19.0,48,0.00,,,0.00,0.000000,,2013-04-16 08:52:00,
2013-04-16 05:02:00,46.0,27.0,-100.00,South,186,9.0,19.0,48,0.00,,,0.00,0.000000,,2013-04-16 09:02:00,
2013-04-16 05:12:00,46.0,27.0,-100.00,South,186,9.0,19.0,48,0.00,,,0.00,0.000000,,2013-04-16 09:12:00,
2013-04-16 05:43:00,46.0,29.0,-100.00,South,189,7.0,18.0,51,0.00,,,0.00,0.000000,,2013-04-16 09:43:00,
2013-04-16 05:53:00,46.0,29.0,-100.00,South,189,7.0,18.0,51,0.00,,,0.00,0.000000,,2013-04-16 09:53:00,
2013-04-16 06:03:00,46.0,29.0,-100.00,South,189,7.0,18.0,51,0.00,,,0.00,0.000000,,2013-04-16 10:03:00,
2013-04-16 06:13:00,46.0,29.0,-100.00,South,189,7.0,18.0,51,0.00,,,0.00,0.000000,,2013-04-16 10:13:00,
2013-04-16 06:43:00,46.0,31.0,-100.00,SSW,192,6.0,18.0,55,0.00,,,0.00,0.000000,,2013-04-16 10:43:00,
2013-04-16 06:53:00,46.0,31.0,-100.00,SSW,192,6.0,18.0,55,0.00,,,0.00,0.000000,,2013-04-16 10:53:00,
2013-04-16 07:03:00,46.0,31.0,-100.00,SSW,192,6.0,18.0,55,0.00,,,0.00,0.000000,,2013-04-16 11:03:00,
2013-04-16 07:12:00,46.0,31.0,-100.00,SSW,192,6.0,18.0,55,0.00,,,0.00,0.000000,,2013-04-16 11:12:00,
2013-04-16 07:32:00,45.0,32.0,-100.00,South,187,9.0,18.0,61,0.00,,,0.00,13.000000,,2013-04-16 11:32:00,
2013-04-16 07:42:00,45.0,32.0,-100.00,South,187,9.0,18.0,61,0.00,,,0.00,13.000000,,2013-04-16 11:42:00,
2013-04-16 07:53:00,45.0,32.0,-100.00,South,187,9.0,18.0,61,0.00,,,0.00,13.000000,,2013-04-16 11:53:00,
2013-04-16 08:02:00,45.0,32.0,-100.00,South,187,9.0,18.0,61,0.00,,,0.00,13.000000,,2013-04-16 12:02:00,
2013-04-16 08:12:00,45.0,32.0,-100.00,South,187,9.0,18.0,61,0.00,,,0.00,13.000000,,2013-04-16 12:12:00,
2013-04-16 08:42:00,47.0,35.0,-100.00,South,190,10.0,20.0,63,0.00,,,0.00,29.000000,,2013-04-16 12:42:00,
2013-04-16 08:52:00,47.0,35.0,-100.00,South,190,10.0,20.0,63,0.00,,,0.00,29.000000,,2013-04-16 12:52:00,
2013-04-16 09:02:00,47.0,35.0,-100.00,South,190,10.0,20.0,63,0.00,,,0.00,29.000000,,2013-04-16 13:02:00,
2013-04-16 09:12:00,47.0,35.0,-100.00,South,190,10.0,20.0,63,0.00,,,0.00,29.000000,,2013-04-16 13:12:00,
2013-04-16 09:42:00,52.0,39.0,-100.00,SSW,195,11.0,24.0,62,0.00,,,0.00,131.000000,,2013-04-16 13:42:00,
2013-04-16 09:52:00,52.0,39.0,-100.00,SSW,195,11.0,24.0,62,0.00,,,0.00,131.000000,,2013-04-16 13:52:00,
2013-04-16 10:02:00,52.0,39.0,-100.00,SSW,195,11.0,24.0,62,0.00,,,0.00,131.000000,,2013-04-16 14:02:00,
2013-04-16 10:12:00,52.0,39.0,-100.00,SSW,195,11.0,24.0,62,0.00,,,0.00,131.000000,,2013-04-16 14:12:00,
2013-04-16 10:42:00,52.0,40.0,-100.00,South,186,10.0,24.0,64,0.00,,,-99.99,127.000000,,2013-04-16 14:42:00,
2013-04-16 10:52:00,52.0,40.0,-100.00,South,186,10.0,24.0,64,0.00,,,-99.99,127.000000,,2013-04-16 14:52:00,
2013-04-16 11:02:00,52.0,40.0,-100.00,South,186,10.0,24.0,64,0.00,,,-99.99,127.000000,,2013-04-16 15:02:00,
2013-04-16 11:12:00,52.0,40.0,-100.00,South,186,10.0,24.0,64,0.00,,,-99.99,127.000000,,2013-04-16 15:12:00,
2013-04-16 11:43:00,54.0,41.0,-100.00,South,185,14.0,27.0,62,0.00,,,0.00,119.000000,,2013-04-16 15:43:00,
2013-04-16 11:53:00,54.0,41.0,-100.00,South,185,14.0,27.0,62,0.00,,,0.00,119.000000,,2013-04-16 15:53:00,
2013-04-16 12:03:00,54.0,41.0,-100.00,South,185,14.0,27.0,62,0.00,,,0.00,119.000000,,2013-04-16 16:03:00,
2013-04-16 12:13:00,54.0,41.0,-100.00,South,185,14.0,27.0,62,0.00,,,0.00,119.000000,,2013-04-16 16:13:00,
2013-04-16 12:42:00,56.0,43.0,-100.00,SSW,192,10.0,26.0,62,0.00,,,0.00,117.000000,,2013-04-16 16:42:00,
2013-04-16 12:53:00,56.0,43.0,-100.00,SSW,192,10.0,26.0,62,0.00,,,0.00,117.000000,,2013-04-16 16:53:00,
2013-04-16 13:02:00,56.0,43.0,-100.00,SSW,192,10.0,26.0,62,0.00,,,0.00,117.000000,,2013-04-16 17:02:00,
2013-04-16 13:12:00,56.0,43.0,-100.00,SSW,192,10.0,26.0,62,0.00,,,0.00,117.000000,,2013-04-16 17:12:00,
2013-04-16 13:43:00,57.0,47.0,-100.00,South,189,11.0,25.0,68,0.00,,,0.00,67.000000,,2013-04-16 17:43:00,
2013-04-16 13:53:00,57.0,47.0,-100.00,South,189,11.0,25.0,68,0.00,,,0.00,67.000000,,2013-04-16 17:53:00,
2013-04-16 14:02:00,57.0,47.0,-100.00,South,189,11.0,25.0,68,0.00,,,0.00,67.000000,,2013-04-16 18:02:00,
2013-04-16 14:12:00,57.0,47.0,-100.00,South,189,11.0,25.0,68,0.00,,,0.00,67.000000,,2013-04-16 18:12:00,
2013-04-16 14:43:00,60.0,47.0,-100.00,SSW,199,11.0,20.0,62,0.00,,,0.00,24.000000,,2013-04-16 18:43:00,
2013-04-16 14:52:00,60.0,47.0,-100.00,SSW,199,11.0,20.0,62,0.00,,,0.00,24.000000,,2013-04-16 18:52:00,
2013-04-16 15:02:00,60.0,47.0,-100.00,SSW,199,11.0,20.0,62,0.00,,,0.00,24.000000,,2013-04-16 19:02:00,
2013-04-16 15:12:00,60.0,47.0,-100.00,SSW,199,11.0,20.0,62,0.00,,,0.00,24.000000,,2013-04-16 19:12:00,
2013-04-16 15:43:00,56.0,51.0,-100.00,SSW,192,9.0,17.0,84,0.07,,,0.07,16.000000,,2013-04-16 19:43:00,
2013-04-16 15:52:00,56.0,51.0,-100.00,SSW,192,9.0,17.0,84,0.07,,,0.07,16.000000,,2013-04-16 19:52:00,
2013-04-16 16:02:00,56.0,51.0,-100.00,SSW,192,9.0,17.0,84,0.07,,,0.07,16.000000,,2013-04-16 20:02:00,
2013-04-16 16:13:00,56.0,51.0,-100.00,SSW,192,9.0,17.0,84,0.07,,,0.07,16.000000,,2013-04-16 20:13:00,
2013-04-16 16:32:00,57.0,52.0,-100.00,South,183,7.0,19.0,83,0.01,,,0.08,52.000000,,2013-04-16 20:32:00,
2013-04-16 16:42:00,57.0,52.0,-100.00,South,183,7.0,19.0,83,0.01,,,0.08,52.000000,,2013-04-16 20:42:00,
2013-04-16 16:52:00,57.0,52.0,-100.00,South,183,7.0,19.0,83,0.01,,,0.08,52.000000,,2013-04-16 20:52:00,
2013-04-16 17:02:00,57.0,52.0,-100.00,South,183,7.0,19.0,83,0.01,,,0.08,52.000000,,2013-04-16 21:02:00,
2013-04-16 17:12:00,57.0,52.0,-100.00,South,183,7.0,19.0,83,0.01,,,0.08,52.000000,,2013-04-16 21:12:00,
2013-04-16 17:43:00,58.0,54.0,-100.00,South,175,8.0,19.0,88,0.04,,,0.12,42.000000,,2013-04-16 21:43:00,
2013-04-16 17:53:00,58.0,54.0,-100.00,South,175,8.0,19.0,88,0.04,,,0.12,42.000000,,2013-04-16 21:53:00,
2013-04-16 18:03:00,58.0,54.0,-100.00,South,175,8.0,19.0,88,0.04,,,0.12,42.000000,,2013-04-16 22:03:00,
2013-04-16 18:13:00,58.0,54.0,-100.00,South,175,8.0,19.0,88,0.04,,,0.12,42.000000,,2013-04-16 22:13:00,
2013-04-16 18:43:00,59.0,52.0,-100.00,SSW,203,9.0,18.0,78,0.00,,,0.12,69.000000,,2013-04-16 22:43:00,
2013-04-16 18:52:00,59.0,52.0,-100.00,SSW,203,9.0,18.0,78,0.00,,,0.12,69.000000,,2013-04-16 22:52:00,
2013-04-16 19:02:00,59.0,52.0,-100.00,SSW,203,9.0,18.0,78,0.00,,,0.12,69.000000,,2013-04-16 23:02:00,
2013-04-16 19:12:00,59.0,52.0,-100.00,SSW,203,9.0,18.0,78,0.00,,,0.12,69.000000,,2013-04-16 23:12:00,
2013-04-16 19:32:00,59.0,51.0,-100.00,SSW,200,8.0,18.0,74,0.00,,,0.12,17.000000,,2013-04-16 23:32:00,
2013-04-16 19:43:00,59.0,51.0,-100.00,SSW,200,8.0,18.0,74,0.00,,,0.12,17.000000,,2013-04-16 23:43:00,
2013-04-16 19:52:00,59.0,51.0,-100.00,SSW,200,8.0,18.0,74,0.00,,,0.12,17.000000,,2013-04-16 23:52:00,
2013-04-16 20:02:00,59.0,51.0,-100.00,SSW,200,8.0,18.0,74,0.00,,,0.12,17.000000,,2013-04-17 00:02:00,
2013-04-16 20:12:00,59.0,51.0,-100.00,SSW,200,8.0,18.0,74,0.00,,,0.12,17.000000,,2013-04-17 00:12:00,
2013-04-16 20:42:00,59.0,51.0,-100.00,SSW,193,10.0,21.0,75,0.00,,,0.12,1.000000,,2013-04-17 00:42:00,
2013-04-16 20:52:00,59.0,51.0,-100.00,SSW,193,10.0,21.0,75,0.00,,,0.12,1.000000,,2013-04-17 00:52:00,
2013-04-16 21:02:00,59.0,51.0,-100.00,SSW,193,10.0,21.0,75,0.00,,,0.12,1.000000,,2013-04-17 01:02:00,
2013-04-16 21:12:00,59.0,51.0,-100.00,SSW,193,10.0,21.0,75,0.00,,,0.12,1.000000,,2013-04-17 01:12:00,
2013-04-16 21:32:00,59.0,52.0,-100.00,SSW,207,7.0,19.0,77,0.00,,,0.12,0.000000,,2013-04-17 01:32:00,
2013-04-16 21:42:00,59.0,52.0,-100.00,SSW,207,7.0,19.0,77,0.00,,,0.12,0.000000,,2013-04-17 01:42:00,
2013-04-16 21:52:00,59.0,52.0,-100.00,SSW,207,7.0,19.0,77,0.00,,,0.12,0.000000,,2013-04-17 01:52:00,
2013-04-16 22:02:00,59.0,52.0,-100.00,SSW,207,7.0,19.0,77,0.00,,,0.12,0.000000,,2013-04-17 02:02:00,
2013-04-16 22:12:00,59.0,52.0,-100.00,SSW,207,7.0,19.0,77,0.00,,,0.12,0.000000,,2013-04-17 02:12:00,
2013-04-16 22:42:00,57.0,54.0,-100.00,NW,318,4.0,16.0,90,0.02,,,0.14,0.000000,,2013-04-17 02:42:00,
2013-04-16 22:52:00,57.0,54.0,-100.00,NW,318,4.0,16.0,90,0.02,,,0.14,0.000000,,2013-04-17 02:52:00,
2013-04-16 23:02:00,57.0,54.0,-100.00,NW,318,4.0,16.0,90,0.02,,,0.14,0.000000,,2013-04-17 03:02:00,
2013-04-16 23:12:00,57.0,54.0,-100.00,NW,318,4.0,16.0,90,0.02,,,0.14,0.000000,,2013-04-17 03:12:00,
2013-04-16 23:43:00,53.0,46.0,-100.00,NW,317,10.0,20.0,77,0.01,,,0.15,0.000000,,2013-04-17 03:43:00,
2013-04-16 23:53:00,53.0,46.0,-100.00,NW,317,10.0,20.0,77,0.01,,,0.15,0.000000,,2013-04-17 03:53:00,